Home > Weather > Whitby > Past weeks

Flag for Canada Past Weather in Whitby, Ontario, Canada — Yesterday and Last 2 Weeks

Now
75 °F

Partly sunny.


Feels Like: 78 °F
Forecast: 67 / 78 °F
Wind: 6 mph from North

Location: Toronto Buttonville

Current Time: Jul 29, 2016 at 9:54:01 PM

Latest Report: Jul 29, 2016 at 9:00 PM


Visibility: 15 mi

Pressure: 29.99 "Hg

Humidity: 54%

Dew Point: 57 °F

Location of WhitbyLocation

Past Weather in Whitby — Graph

°F

Whitby Temperature Yesterday

Maximum temperature yesterday: 82 °F (at 1:00 PM)
Minimum temperature yesterday: 66 °F (at 11:00 PM)
Average temperature yesterday: 75 °F

High & Low Weather Summary for the Past Weeks

 TemperatureHumidityPressure
High93 °F (Jul 22, 3:00 PM)94% (Jul 16, 4:49 AM)30.28 "Hg (Jul 16, 4:49 AM)
Low55 °F (Jul 17, 4:00 AM)24% (Jul 22, 5:45 PM)29.72 "Hg (Jul 14, 8:00 PM)
Average74 °F61%29.98 "Hg
* Reported Jul 14 8:00 PM — Jul 29 8:00 PM, Whitby, Weather by CustomWeather, © 2016

Note: Actual official high and low records may vary slightly from our data, if they occured in-between our weather recording intervals... More about our weather records

Advertising

Whitby Weather History for the Previous 24 Hours

Scroll right to see more
 ConditionsComfort  
Time TempWeatherWind HumidityBarometerVisibility
8:00 PM
Fri, Jul 29
77 °FBroken clouds.8 mph42%29.97 "Hg15 mi
7:00 PM77 °FBroken clouds.10 mph47%29.97 "Hg15 mi
6:00 PM79 °FPartly sunny.8 mph48%29.96 "Hg15 mi
5:00 PM79 °FPartly sunny.8 mph48%29.96 "Hg15 mi
4:00 PM81 °FPartly sunny.6 mph48%29.96 "Hg15 mi
3:00 PM79 °FPartly sunny.7 mph48%29.97 "Hg15 mi
2:00 PM79 °FPartly sunny.6 mph51%29.98 "Hg15 mi
1:00 PM77 °FPartly sunny.9 mph51%29.98 "Hg15 mi
12:00 PM77 °FPartly sunny.7 mph51%29.98 "Hg15 mi
11:00 AM73 °FPartly sunny.5 mph57%29.99 "Hg15 mi
10:00 AM70 °FPartly sunny.7 mph60%29.98 "Hg15 mi
9:00 AM68 °FPartly sunny.10 mph69%29.98 "Hg15 mi
8:00 AM66 °FPartly sunny.7 mph73%29.97 "Hg15 mi
7:00 AM64 °FPassing clouds.6 mph78%29.96 "Hg15 mi
6:00 AM64 °FPassing clouds.7 mph78%29.94 "Hg15 mi
5:00 AM64 °FPassing clouds.5 mph83%29.95 "Hg15 mi
4:00 AM66 °FPassing clouds.6 mph78%29.94 "Hg15 mi
3:00 AM68 °FPassing clouds.9 mph83%29.93 "Hg15 mi
2:00 AM70 °FPassing clouds.5 mph83%29.92 "Hg15 mi
1:00 AM68 °FPassing clouds.3 mph88%29.92 "Hg15 mi
12:00 AM68 °FPassing clouds.2 mph88%29.92 "Hg15 mi
11:55 PM
Thu, Jul 28
68 °FPassing clouds.3 mph88%29.92 "Hg15 mi
11:00 PM66 °FSprinkles. Overcast.3 mph88%29.94 "Hg5 mi
10:00 PM77 °FPassing clouds.16 mph57%29.93 "Hg15 mi
9:00 PM79 °FBroken clouds.7 mph54%29.90 "Hg15 mi
Weather by CustomWeather, © 2016

See weather overviewHow to use our weather pages